Lid_Strength_Index
0 1 1 0 0 0 0 -0 -1 -1 -1 -1 -1 -1 -1 -0 -0 -1 -0 -0 0 0
0 -0 -0 -0 -1 -0 -2 -1 -1 -1 -1 -1 -1 -1 -1 -0 -0 -0 -0 -0 -0 0
-0 -0 -1 -1 -0 -1 -1 -1 -1 -1 -1 -0 -0 -1 -1 -0 -0 0 0 0 0 0
-0 -0 -0 -0 -0 -1 -1 -1 -0 -0 -0 -0 -0 -0 -0 0 0 0 0 0 0 1
0 -0 -0 -0 -0 -1 -0 -0 -0 -0 -0 0 0 -0 0 1 0 1 1 1 1 1
0 -0 0 -0 -0 -1 -0 -0 -0 -0 0 0 0 0 0 0 1 1 1 1 1 1
0 0 -0 -0 -0 -0 -0 -0 -0 -0 0 -0 -0 0 0 0 0 0 1 0 1 1
0 -0 -0 0 -0 -0 -0 -0 -0 -0 -0 0 0 0 0 0 0 1 1 1 0 0
1 1 1 0 0 0 0 0 0 0 1 0 0 3 4 2 0 0 1 1 1 0
1 2 1 1 1 0 0 0 1 0 1 1 0 4 5 4 1 1 1 1 1 1
2 3 2 2 2 0 0 1 1 1 0 1 0 5 7 6 3 2 2 2 2 1
3 3 3 3 2 1 1 2 2 3 3 3 3 6 8 8 5 5 4 3 3 3
3 3 3 3 3 4 4 5 5 6 7 8 8 8 9 9 9 9 9 8 7 8
3 3 4 5 6 8 9 10 11 11 11 10 10 9 10 10 9 9 9 8 8 6